EW8100 Weather Reports


Display with metric or nautical units.
time (UTC)temp
F
wind
direction
speed
MPH
gust
MPH
rain 1hr
in
rain 24hr
in
rain mn
in
humidity
%
barometer
mb
20260505052516 72 187 9.0 13.0 0.00 0.00 0.00 58 1004.6
20260505051517 72 187 10.0 16.0 0.00 0.00 0.00 58 1004.4
20260505050517 72 194 10.0 14.0 0.00 0.00 0.00 58 1004.3
20260505041536 73 187 10.0 15.0 0.00 0.00 0.00 57 1003.8
20260505040516 73 189 10.0 16.0 0.00 0.00 0.00 56 1004.0
20260505035536 73 187 9.0 14.0 0.00 0.00 0.00 56 1004.2
20260505034516 74 186 9.0 12.0 0.00 0.00 0.00 56 1004.4
20260505033556 74 187 10.0 13.0 0.00 0.00 0.00 56 1004.5
20260505032517 74 186 9.0 13.0 0.00 0.00 0.00 55 1004.4
20260505031516 74 180 9.0 12.0 0.00 0.00 0.00 55 1004.4
20260505030517 75 183 9.0 11.0 0.00 0.00 0.00 54 1004.4
20260505025516 75 184 9.0 12.0 0.00 0.00 0.00 53 1004.3
20260505024517 75 187 9.0 13.0 0.00 0.00 0.00 53 1004.2
20260505023517 75 185 9.0 13.0 0.00 0.00 0.00 53 1004.1
20260505022516 75 187 9.0 13.0 0.00 0.00 0.00 53 1003.8
20260505021516 76 185 9.0 13.0 0.00 0.00 0.00 53 1003.6
20260505020542 76 187 9.0 12.0 0.00 0.00 0.00 53 1003.3
20260505015556 76 183 9.0 14.0 0.00 0.00 0.00 53 1003.2
20260505014516 76 186 9.0 13.0 0.00 0.00 0.00 53 1003.2
20260505013517 76 182 9.0 13.0 0.00 0.00 0.00 53 1003.0
20260505012557 76 181 9.0 13.0 0.00 0.00 0.00 54 1002.9
20260505011516 76 184 9.0 11.0 0.00 0.00 0.00 54 1002.9
20260505010516 76 182 9.0 11.0 0.00 0.00 0.00 53 1002.9
20260505005516 77 182 9.0 11.0 0.00 0.00 0.00 53 1002.9
20260505004517 77 182 9.0 10.0 0.00 0.00 0.00 52 1002.7
20260505003517 78 183 9.0 12.0 0.00 0.00 0.00 51 1002.5
20260505002517 78 184 9.0 12.0 0.00 0.00 0.00 51 1002.6
20260505001516 78 185 9.0 12.0 0.00 0.00 0.00 51 1002.5
20260505000516 79 188 10.0 14.0 0.00 0.00 0.00 50 1002.5
20260504235516 79 187 9.0 14.0 0.00 0.00 0.00 50 1002.4
20260504234516 79 186 9.0 11.0 0.00 0.00 0.00 49 1002.4
20260504233537 80 189 10.0 12.0 0.00 0.00 0.00 49 1002.4
20260504232517 79 186 10.0 15.0 0.00 0.00 0.00 49 1002.6
20260504231541 79 190 9.0 14.0 0.00 0.00 0.00 49 1002.8
20260504230517 79 190 11.0 14.0 0.00 0.00 0.00 49 1002.7
20260504225537 79 189 10.0 15.0 0.00 0.00 0.00 50 1002.9
20260504224532 79 189 10.0 12.0 0.00 0.00 0.00 49 1002.8
20260504223516 80 184 10.0 12.0 0.00 0.00 0.00 49 1002.9
20260504222517 80 189 10.0 16.0 0.00 0.00 0.00 48 1003.0
20260504221517 80 185 10.0 14.0 0.00 0.00 0.00 50 1003.0
20260504220516 80 185 10.0 15.0 0.00 0.00 0.00 50 1003.0
20260504215537 80 188 10.0 15.0 0.00 0.00 0.00 50 1003.0
20260504214516 80 191 10.0 14.0 0.00 0.00 0.00 52 1003.1
20260504213517 79 181 11.0 14.0 0.00 0.00 0.00 53 1003.2
20260504212537 79 187 10.0 14.0 0.00 0.00 0.00 59 1003.2
20260504211516 78 183 11.0 14.0 0.00 0.00 0.00 59 1003.4
20260504210536 77 189 10.0 13.0 0.00 0.00 0.00 60 1003.5
20260504205537 77 182 10.0 14.0 0.00 0.00 0.00 60 1003.4
20260504204516 77 183 10.0 14.0 0.00 0.00 0.00 60 1003.6
20260504203537 76 185 11.0 15.0 0.00 0.00 0.00 59 1003.8
20260504202516 76 190 10.0 15.0 0.00 0.00 0.00 59 1003.9
20260504201517 75 166 12.0 18.0 0.00 0.00 0.00 59 1004.1
20260504200016 73 183 10.0 14.0 0.00 0.00 0.00 65 1004.2
20260504195036 72 185 9.0 14.0 0.00 0.00 0.00 64 1004.4
20260504194016 71 180 10.0 14.0 0.00 0.00 0.00 66 1004.5
20260504193016 70 180 10.0 14.0 0.00 0.00 0.00 69 1004.7
20260504192021 69 181 9.0 12.0 0.00 0.00 0.00 70 1005.0
20260504191017 68 177 11.0 16.0 0.00 0.00 0.00 72 1004.5
20260504190037 66 168 12.0 17.0 0.00 0.00 0.00 71 1004.3
20260504185016 66 164 12.0 18.0 0.00 0.00 0.00 71 1004.5
20260504184036 66 171 11.0 15.0 0.00 0.00 0.00 70 1005.8
20260504183017 67 175 10.0 15.0 0.00 0.00 0.00 69 1005.8
20260504182016 67 174 10.0 13.0 0.00 0.00 0.00 70 1005.9
20260504181016 66 179 11.0 15.0 0.00 0.00 0.00 69 1005.6
20260504180016 66 172 11.0 15.0 0.00 0.00 0.00 69 1005.6
20260504175017 66 175 10.0 15.0 0.00 0.00 0.00 69 1005.7
20260504174037 66 174 10.0 13.0 0.00 0.00 0.00 70 1005.8
20260504173016 66 182 9.0 13.0 0.00 0.00 0.00 69 1006.2
20260504171017 65 184 10.0 13.0 0.00 0.00 0.00 69 1006.3
20260504151016 66 180 9.0 14.0 0.00 0.00 0.00 62 1007.7
20260504141016 67 180 10.0 15.0 0.00 0.00 0.00 61 1008.0
20260504110139 61 174 9.0 10.0 0.00 0.00 0.00 72 1008.6
20260504081036 60 84 0.0 2.0 0.00 0.00 0.00 75 1009.0